| time (UTC) | temp F | wind direction | speed MPH | gust MPH | rain 1hr in | rain 24hr in | rain mn in | humidity % | barometer mb |
| 20260902134034 | 79 | 33 | 3.0 | 6.0 | 0.00 | 0.00 | 0.00 | 43 | 1020.1 |
| 20260902133530 | 80 | 52 | 2.0 | 7.0 | 0.00 | 0.00 | 0.00 | 43 | 1020.2 |
| 20260902133046 | 80 | 60 | 4.0 | 7.0 | 0.00 | 0.00 | 0.00 | 42 | 1020.2 |
| 20260902132539 | 80 | 351 | 1.0 | 6.0 | 0.00 | 0.00 | 0.00 | 42 | 1020.2 |
| 20260902132045 | 80 | 341 | 1.0 | 3.0 | 0.00 | 0.00 | 0.00 | 45 | 1020.3 |
| 20260902131602 | 79 | 196 | 1.0 | 5.0 | 0.00 | 0.00 | 0.00 | 45 | 1020.3 |
| 20260902131035 | 79 | 17 | 2.0 | 9.0 | 0.00 | 0.00 | 0.00 | 43 | 1020.4 |
| 20260902130553 | 80 | 13 | 3.0 | 9.0 | 0.00 | 0.00 | 0.00 | 43 | 1020.4 |
| 20260902130043 | 80 | 322 | 2.0 | 5.0 | 0.00 | 0.00 | 0.00 | 43 | 1020.4 |
| 20260902125535 | 80 | 297 | 3.0 | 8.0 | 0.00 | 0.00 | 0.00 | 43 | 1020.5 |
| 20260902125027 | 79 | 309 | 0.0 | 13.0 | 0.00 | 0.00 | 0.00 | 44 | 1020.5 |
| 20260902124600 | 79 | 194 | 1.0 | 13.0 | 0.00 | 0.00 | 0.00 | 44 | 1020.5 |
| 20260902124031 | 80 | 49 | 1.0 | 5.0 | 0.00 | 0.00 | 0.00 | 42 | 1020.6 |
| 20260902123543 | 79 | 5 | 2.0 | 4.0 | 0.00 | 0.00 | 0.00 | 44 | 1020.6 |
| 20260902123042 | 79 | 153 | 1.0 | 4.0 | 0.00 | 0.00 | 0.00 | 46 | 1020.6 |
| 20260902122533 | 79 | 349 | 1.0 | 8.0 | 0.00 | 0.00 | 0.00 | 44 | 1020.6 |
| 20260902122042 | 78 | 296 | 1.0 | 8.0 | 0.00 | 0.00 | 0.00 | 47 | 1020.6 |
| 20260902121533 | 77 | 323 | 1.0 | 4.0 | 0.00 | 0.00 | 0.00 | 45 | 1020.6 |
| 20260902121043 | 77 | 46 | 1.0 | 8.0 | 0.00 | 0.00 | 0.00 | 46 | 1020.6 |
| 20260902120539 | 77 | 46 | 2.0 | 8.0 | 0.00 | 0.00 | 0.00 | 46 | 1020.6 |
| 20260902120043 | 77 | 49 | 1.0 | 4.0 | 0.00 | 0.00 | 0.00 | 46 | 1020.7 |
| 20260902115535 | 78 | 36 | 1.0 | 4.0 | 0.00 | 0.00 | 0.00 | 46 | 1020.7 |
| 20260902115033 | 77 | 10 | 1.0 | 3.0 | 0.00 | 0.00 | 0.00 | 46 | 1020.8 |
| 20260902114539 | 77 | 26 | 0.0 | 6.0 | 0.00 | 0.00 | 0.00 | 48 | 1020.9 |
| 20260902114034 | 78 | 286 | 3.0 | 6.0 | 0.00 | 0.00 | 0.00 | 45 | 1020.9 |
| 20260902113545 | 78 | 13 | 2.0 | 6.0 | 0.00 | 0.00 | 0.00 | 46 | 1020.9 |
| 20260902113045 | 77 | 279 | 2.0 | 5.0 | 0.00 | 0.00 | 0.00 | 47 | 1020.9 |
| 20260902112543 | 76 | 284 | 2.0 | 5.0 | 0.00 | 0.00 | 0.00 | 49 | 1021.0 |
| 20260902112034 | 76 | 123 | 1.0 | 3.0 | 0.00 | 0.00 | 0.00 | 52 | 1021.0 |
| 20260902111601 | 75 | 55 | 1.0 | 3.0 | 0.00 | 0.00 | 0.00 | 53 | 1021.1 |
| 20260902111035 | 75 | 20 | 1.0 | 6.0 | 0.00 | 0.00 | 0.00 | 51 | 1021.0 |
| 20260902110545 | 75 | 19 | 2.0 | 6.0 | 0.00 | 0.00 | 0.00 | 50 | 1021.1 |
| 20260902110036 | 75 | 360 | 2.0 | 5.0 | 0.00 | 0.00 | 0.00 | 51 | 1021.2 |
| 20260902105528 | 76 | 350 | 2.0 | 5.0 | 0.00 | 0.00 | 0.00 | 50 | 1021.2 |
| 20260902105045 | 76 | 5 | 0.0 | 3.0 | 0.00 | 0.00 | 0.00 | 52 | 1021.2 |
| 20260902104538 | 76 | 223 | 1.0 | 5.0 | 0.00 | 0.00 | 0.00 | 51 | 1021.1 |
| 20260902104027 | 76 | 214 | 2.0 | 5.0 | 0.00 | 0.00 | 0.00 | 51 | 1021.3 |
| 20260902103538 | 75 | 360 | 1.0 | 5.0 | 0.00 | 0.00 | 0.00 | 53 | 1021.3 |
| 20260902103029 | 74 | 5 | 1.0 | 5.0 | 0.00 | 0.00 | 0.00 | 53 | 1021.3 |
| 20260902102546 | 75 | 13 | 1.0 | 5.0 | 0.00 | 0.00 | 0.00 | 52 | 1021.4 |
| 20260902102040 | 76 | 16 | 2.0 | 5.0 | 0.00 | 0.00 | 0.00 | 51 | 1021.4 |
| 20260902101536 | 76 | 328 | 0.0 | 4.0 | 0.00 | 0.00 | 0.00 | 52 | 1021.3 |
| 20260902101056 | 75 | 96 | 1.0 | 4.0 | 0.00 | 0.00 | 0.00 | 52 | 1021.3 |
| 20260902100545 | 75 | 171 | 0.0 | 2.0 | 0.00 | 0.00 | 0.00 | 54 | 1021.3 |
| 20260902100035 | 74 | 40 | 1.0 | 3.0 | 0.00 | 0.00 | 0.00 | 53 | 1021.3 |
| 20260902095546 | 75 | 22 | 1.0 | 3.0 | 0.00 | 0.00 | 0.00 | 53 | 1021.3 |
| 20260902095040 | 74 | 30 | 0.0 | 2.0 | 0.00 | 0.00 | 0.00 | 56 | 1021.3 |
| 20260902094535 | 74 | 333 | 0.0 | 1.0 | 0.00 | 0.00 | 0.00 | 56 | 1021.3 |
| 20260902094026 | 73 | 46 | 0.0 | 3.0 | 0.00 | 0.00 | 0.00 | 57 | 1021.3 |
| 20260902093536 | 73 | 75 | 0.0 | 2.0 | 0.00 | 0.00 | 0.00 | 58 | 1021.3 |
| 20260902093104 | 72 | 48 | 0.0 | 2.0 | 0.00 | 0.00 | 0.00 | 59 | 1021.3 |
| 20260902092533 | 72 | 9 | 1.0 | 3.0 | 0.00 | 0.00 | 0.00 | 59 | 1021.2 |
| 20260902092028 | 72 | 5 | 0.0 | 3.0 | 0.00 | 0.00 | 0.00 | 59 | 1021.2 |
| 20260902091539 | 71 | 360 | 0.0 | 1.0 | 0.00 | 0.00 | 0.00 | 62 | 1021.2 |
| 20260902091033 | 70 | 31 | 1.0 | 2.0 | 0.00 | 0.00 | 0.00 | 62 | 1021.2 |
| 20260902090543 | 70 | 51 | 0.0 | 1.0 | 0.00 | 0.00 | 0.00 | 64 | 1021.3 |
| 20260902090026 | 70 | 47 | 0.0 | 3.0 | 0.00 | 0.00 | 0.00 | 64 | 1021.2 |
| 20260902085547 | 69 | 56 | 1.0 | 3.0 | 0.00 | 0.00 | 0.00 | 66 | 1021.3 |
| 20260902085046 | 69 | 40 | 1.0 | 2.0 | 0.00 | 0.00 | 0.00 | 66 | 1021.2 |
| 20260902084537 | 69 | 96 | 1.0 | 2.0 | 0.00 | 0.00 | 0.00 | 69 | 1021.2 |
| 20260902084049 | 68 | 43 | 0.0 | 1.0 | 0.00 | 0.00 | 0.00 | 67 | 1021.2 |
| 20260902083541 | 68 | 74 | 0.0 | 1.0 | 0.00 | 0.00 | 0.00 | 70 | 1021.1 |
| 20260902083031 | 67 | 11 | 1.0 | 2.0 | 0.00 | 0.00 | 0.00 | 70 | 1021.2 |
| 20260902082546 | 67 | 5 | 1.0 | 2.0 | 0.00 | 0.00 | 0.00 | 70 | 1021.2 |
| 20260902082041 | 67 | 350 | 1.0 | 2.0 | 0.00 | 0.00 | 0.00 | 70 | 1021.1 |
| 20260902081534 | 67 | 66 | 1.0 | 2.0 | 0.00 | 0.00 | 0.00 | 71 | 1021.1 |
| 20260902081045 | 66 | 32 | 0.0 | 1.0 | 0.00 | 0.00 | 0.00 | 72 | 1021.1 |
| 20260902080601 | 66 | 360 | 1.0 | 1.0 | 0.00 | 0.00 | 0.00 | 72 | 1021.0 |
| 20260902080044 | 66 | 46 | 0.0 | 1.0 | 0.00 | 0.00 | 0.00 | 73 | 1020.9 |
| 20260902075530 | 66 | 40 | 0.0 | 1.0 | 0.00 | 0.00 | 0.00 | 73 | 1020.9 |
| 20260902075040 | 65 | 56 | 0.0 | 1.0 | 0.00 | 0.00 | 0.00 | 75 | 1020.8 |
| 20260902074557 | 64 | 63 | 0.0 | 1.0 | 0.00 | 0.00 | 0.00 | 76 | 1020.9 |
| 20260902074051 | 64 | 40 | 0.0 | 1.0 | 0.00 | 0.00 | 0.00 | 76 | 1020.9 |
| 20260902073541 | 63 | 42 | 0.0 | 1.0 | 0.00 | 0.00 | 0.00 | 78 | 1020.8 |
| 20260902073033 | 63 | 44 | 1.0 | 1.0 | 0.00 | 0.00 | 0.00 | 79 | 1020.8 |
| 20260902072539 | 63 | 34 | 0.0 | 2.0 | 0.00 | 0.00 | 0.00 | 79 | 1020.7 |
| 20260902072028 | 62 | 28 | 1.0 | 2.0 | 0.00 | 0.00 | 0.00 | 79 | 1020.8 |
| 20260902071540 | 62 | 38 | 0.0 | 2.0 | 0.00 | 0.00 | 0.00 | 79 | 1020.6 |
| 20260902071032 | 62 | 32 | 1.0 | 2.0 | 0.00 | 0.00 | 0.00 | 81 | 1020.6 |
| 20260902070542 | 61 | 360 | 1.0 | 2.0 | 0.00 | 0.00 | 0.00 | 81 | 1020.6 |
| 20260902070045 | 61 | 26 | 1.0 | 2.0 | 0.00 | 0.00 | 0.00 | 81 | 1020.6 |
| 20260902065539 | 61 | 5 | 1.0 | 2.0 | 0.00 | 0.00 | 0.00 | 80 | 1020.6 |
| 20260902065034 | 61 | 9 | 1.0 | 2.0 | 0.00 | 0.00 | 0.00 | 81 | 1020.6 |
| 20260902064530 | 61 | 324 | 1.0 | 2.0 | 0.00 | 0.00 | 0.00 | 81 | 1020.6 |
| 20260902064045 | 60 | 351 | 1.0 | 1.0 | 0.00 | 0.00 | 0.00 | 82 | 1020.5 |
| 20260902063539 | 60 | 350 | 0.0 | 1.0 | 0.00 | 0.00 | 0.00 | 83 | 1020.5 |
| 20260902063031 | 59 | 10 | 1.0 | 1.0 | 0.00 | 0.00 | 0.00 | 84 | 1020.4 |
| 20260902062546 | 58 | 5 | 0.0 | 1.0 | 0.00 | 0.00 | 0.00 | 86 | 1020.4 |
| 20260902062033 | 58 | 355 | 0.0 | 1.0 | 0.00 | 0.00 | 0.00 | 86 | 1020.5 |
| 20260902061539 | 57 | 11 | 0.0 | 1.0 | 0.00 | 0.00 | 0.00 | 88 | 1020.5 |
| 20260902061032 | 56 | 350 | 0.0 | 1.0 | 0.00 | 0.00 | 0.00 | 88 | 1020.4 |
| 20260902060546 | 56 | 332 | 0.0 | 1.0 | 0.00 | 0.00 | 0.00 | 87 | 1020.5 |
| 20260902060035 | 56 | 355 | 0.0 | 1.0 | 0.00 | 0.00 | 0.00 | 88 | 1020.4 |
| 20260902055548 | 56 | 360 | 0.0 | 1.0 | 0.00 | 0.00 | 0.00 | 88 | 1020.3 |
| 20260902055046 | 56 | 350 | 0.0 | 1.0 | 0.00 | 0.00 | 0.00 | 89 | 1020.3 |
| 20260902054533 | 56 | 344 | 1.0 | 1.0 | 0.00 | 0.00 | 0.00 | 89 | 1020.4 |
| 20260902054052 | 56 | 343 | 0.0 | 1.0 | 0.00 | 0.00 | 0.00 | 89 | 1020.3 |
| 20260902053545 | 56 | 343 | 0.0 | 1.0 | 0.00 | 0.00 | 0.00 | 88 | 1020.3 |
| 20260902053038 | 56 | 347 | 0.0 | 2.0 | 0.00 | 0.00 | 0.00 | 89 | 1020.4 |
| 20260902052550 | 56 | 349 | 1.0 | 1.0 | 0.00 | 0.00 | 0.00 | 89 | 1020.3 |
| 20260902052045 | 56 | 344 | 0.0 | 1.0 | 0.00 | 0.00 | 0.00 | 89 | 1020.3 |
| 20260902051043 | 56 | 326 | 1.0 | 2.0 | 0.00 | 0.00 | 0.00 | 88 | 1020.2 |
| 20260902050539 | 56 | 339 | 0.0 | 1.0 | 0.00 | 0.00 | 0.00 | 88 | 1020.1 |
| 20260902050030 | 56 | 340 | 0.0 | 1.0 | 0.00 | 0.00 | 0.00 | 88 | 1020.2 |
| 20260902045544 | 56 | 329 | 0.0 | 1.0 | 0.00 | 0.00 | 0.00 | 87 | 1020.1 |
| 20260902045033 | 56 | 327 | 0.0 | 1.0 | 0.00 | 0.00 | 0.00 | 86 | 1020.1 |
| 20260902044531 | 56 | 331 | 0.0 | 1.0 | 0.00 | 0.00 | 0.00 | 86 | 1020.0 |
| 20260902044102 | 56 | 342 | 0.0 | 1.0 | 0.00 | 0.00 | 0.00 | 85 | 1020.0 |
| 20260902043602 | 57 | 333 | 0.0 | 1.0 | 0.00 | 0.00 | 0.00 | 85 | 1019.9 |
| 20260902043039 | 57 | 332 | 0.0 | 1.0 | 0.00 | 0.00 | 0.00 | 85 | 1019.9 |
| 20260902042536 | 57 | 355 | 0.0 | 1.0 | 0.00 | 0.00 | 0.00 | 85 | 1019.9 |
| 20260902042033 | 57 | 344 | 0.0 | 1.0 | 0.00 | 0.00 | 0.00 | 85 | 1020.0 |
| 20260902041546 | 57 | 337 | 0.0 | 1.0 | 0.00 | 0.00 | 0.00 | 85 | 1020.0 |
| 20260902041036 | 57 | 350 | 0.0 | 1.0 | 0.00 | 0.00 | 0.00 | 85 | 1020.1 |
| 20260902040557 | 57 | 338 | 0.0 | 2.0 | 0.00 | 0.00 | 0.00 | 85 | 1020.1 |
| 20260902040049 | 57 | 336 | 0.0 | 2.0 | 0.00 | 0.00 | 0.00 | 85 | 1020.1 |
| 20260902035551 | 57 | 340 | 0.0 | 1.0 | 0.00 | 0.00 | 0.00 | 85 | 1020.1 |
| 20260902035044 | 57 | 340 | 1.0 | 1.0 | 0.00 | 0.00 | 0.00 | 85 | 1020.1 |
| 20260902034541 | 57 | 336 | 0.0 | 1.0 | 0.00 | 0.00 | 0.00 | 84 | 1020.0 |
| 20260902034036 | 57 | 342 | 0.0 | 1.0 | 0.00 | 0.00 | 0.00 | 84 | 1019.9 |
| 20260902033529 | 57 | 335 | 0.0 | 2.0 | 0.00 | 0.00 | 0.00 | 84 | 1020.0 |
| 20260902033025 | 57 | 339 | 1.0 | 2.0 | 0.00 | 0.00 | 0.00 | 85 | 1020.1 |
| 20260902032542 | 57 | 344 | 1.0 | 4.0 | 0.00 | 0.00 | 0.00 | 85 | 1020.1 |
| 20260902032039 | 57 | 327 | 1.0 | 4.0 | 0.00 | 0.00 | 0.00 | 85 | 1020.1 |
| 20260902031537 | 57 | 334 | 1.0 | 2.0 | 0.00 | 0.00 | 0.00 | 85 | 1020.1 |
| 20260902031107 | 57 | 346 | 0.0 | 2.0 | 0.00 | 0.00 | 0.00 | 84 | 1019.9 |
| 20260902030541 | 57 | 331 | 0.0 | 2.0 | 0.00 | 0.00 | 0.00 | 84 | 1019.9 |
| 20260902030029 | 57 | 336 | 0.0 | 1.0 | 0.00 | 0.00 | 0.00 | 84 | 1019.8 |
| 20260902025551 | 57 | 341 | 0.0 | 1.0 | 0.00 | 0.00 | 0.00 | 84 | 1019.7 |
| 20260902025044 | 57 | 336 | 0.0 | 1.0 | 0.00 | 0.00 | 0.00 | 84 | 1019.8 |
| 20260902024536 | 57 | 333 | 0.0 | 1.0 | 0.00 | 0.00 | 0.00 | 83 | 1019.8 |
| 20260902024043 | 58 | 334 | 0.0 | 1.0 | 0.00 | 0.00 | 0.00 | 83 | 1019.8 |
| 20260902023540 | 58 | 338 | 0.0 | 1.0 | 0.00 | 0.00 | 0.00 | 84 | 1019.8 |
| 20260902023032 | 58 | 341 | 0.0 | 2.0 | 0.00 | 0.00 | 0.00 | 83 | 1019.8 |
| 20260902022532 | 58 | 338 | 0.0 | 2.0 | 0.00 | 0.00 | 0.00 | 83 | 1019.8 |
| 20260902022049 | 58 | 343 | 0.0 | 1.0 | 0.00 | 0.00 | 0.00 | 82 | 1019.8 |
| 20260902021542 | 58 | 341 | 0.0 | 1.0 | 0.00 | 0.00 | 0.00 | 83 | 1019.8 |
| 20260902021035 | 58 | 347 | 0.0 | 1.0 | 0.00 | 0.00 | 0.00 | 83 | 1019.8 |
| 20260902020554 | 58 | 348 | 0.0 | 1.0 | 0.00 | 0.00 | 0.00 | 83 | 1019.8 |
| 20260902020046 | 58 | 343 | 0.0 | 1.0 | 0.00 | 0.00 | 0.00 | 82 | 1019.9 |
| 20260902015600 | 58 | 345 | 0.0 | 1.0 | 0.00 | 0.00 | 0.00 | 82 | 1019.9 |
| 20260902015107 | 58 | 336 | 0.0 | 1.0 | 0.00 | 0.00 | 0.00 | 82 | 1020.0 |
| 20260902014539 | 58 | 345 | 0.0 | 1.0 | 0.00 | 0.00 | 0.00 | 82 | 1020.0 |
| 20260902014029 | 58 | 341 | 0.0 | 1.0 | 0.00 | 0.00 | 0.00 | 81 | 1019.9 |
| 20260902013547 | 58 | 340 | 0.0 | 1.0 | 0.00 | 0.00 | 0.00 | 80 | 1020.0 |
| 20260902013044 | 59 | 346 | 0.0 | 1.0 | 0.00 | 0.00 | 0.00 | 80 | 1020.0 |
| 20260902012534 | 59 | 346 | 0.0 | 1.0 | 0.00 | 0.00 | 0.00 | 79 | 1020.1 |
| 20260902012054 | 59 | 335 | 0.0 | 1.0 | 0.00 | 0.00 | 0.00 | 79 | 1020.1 |
| 20260902011534 | 59 | 360 | 0.0 | 1.0 | 0.00 | 0.00 | 0.00 | 78 | 1020.0 |
| 20260902011030 | 59 | 5 | 0.0 | 1.0 | 0.00 | 0.00 | 0.00 | 78 | 1020.1 |
| 20260902010541 | 60 | 11 | 0.0 | 1.0 | 0.00 | 0.00 | 0.00 | 78 | 1020.2 |
| 20260902010028 | 60 | 18 | 0.0 | 1.0 | 0.00 | 0.00 | 0.00 | 77 | 1020.1 |
| 20260902005540 | 60 | 15 | 0.0 | 1.0 | 0.00 | 0.00 | 0.00 | 77 | 1020.1 |
| 20260902005033 | 60 | 347 | 0.0 | 1.0 | 0.00 | 0.00 | 0.00 | 77 | 1020.3 |
| 20260902004545 | 60 | 336 | 0.0 | 1.0 | 0.00 | 0.00 | 0.00 | 76 | 1020.3 |
| 20260902004041 | 60 | 327 | 0.0 | 1.0 | 0.00 | 0.00 | 0.00 | 76 | 1020.3 |
| 20260902003537 | 61 | 349 | 0.0 | 1.0 | 0.00 | 0.00 | 0.00 | 75 | 1020.2 |
| 20260902003056 | 61 | 346 | 0.0 | 1.0 | 0.00 | 0.00 | 0.00 | 75 | 1020.2 |
| 20260902002533 | 61 | 336 | 0.0 | 1.0 | 0.00 | 0.00 | 0.00 | 74 | 1020.2 |
| 20260902002043 | 61 | 351 | 0.0 | 1.0 | 0.00 | 0.00 | 0.00 | 75 | 1020.1 |
| 20260902001540 | 61 | 355 | 0.0 | 2.0 | 0.00 | 0.00 | 0.00 | 74 | 1019.9 |
| 20260902001034 | 61 | 360 | 1.0 | 3.0 | 0.00 | 0.00 | 0.00 | 74 | 1020.0 |
| 20260902000551 | 61 | 346 | 1.0 | 1.0 | 0.00 | 0.00 | 0.00 | 74 | 1020.1 |
| 20260902000043 | 61 | 351 | 1.0 | 2.0 | 0.00 | 0.00 | 0.00 | 74 | 1020.1 |
| 20260901235545 | 61 | 355 | 1.0 | 2.0 | 0.00 | 0.00 | 0.00 | 74 | 1020.2 |
| 20260901235034 | 61 | 342 | 1.0 | 2.0 | 0.00 | 0.00 | 0.00 | 73 | 1020.0 |
| 20260901234530 | 61 | 360 | 0.0 | 1.0 | 0.00 | 0.00 | 0.00 | 73 | 1019.9 |
| 20260901234043 | 61 | 355 | 0.0 | 1.0 | 0.00 | 0.00 | 0.00 | 73 | 1019.9 |
| 20260901233536 | 62 | 355 | 0.0 | 1.0 | 0.00 | 0.00 | 0.00 | 73 | 1019.9 |
| 20260901233104 | 62 | 348 | 0.0 | 2.0 | 0.00 | 0.00 | 0.00 | 72 | 1019.9 |
| 20260901232535 | 62 | 329 | 1.0 | 2.0 | 0.00 | 0.00 | 0.00 | 72 | 1020.0 |
| 20260901232027 | 62 | 11 | 1.0 | 1.0 | 0.00 | 0.00 | 0.00 | 71 | 1019.9 |
| 20260901231601 | 62 | 355 | 1.0 | 1.0 | 0.00 | 0.00 | 0.00 | 71 | 1019.9 |
| 20260901231034 | 62 | 345 | 1.0 | 2.0 | 0.00 | 0.00 | 0.00 | 71 | 1020.0 |
| 20260901230530 | 62 | 9 | 1.0 | 2.0 | 0.00 | 0.00 | 0.00 | 72 | 1020.1 |
| 20260901230057 | 62 | 331 | 1.0 | 2.0 | 0.00 | 0.00 | 0.00 | 71 | 1020.2 |
| 20260901225530 | 62 | 336 | 0.0 | 2.0 | 0.00 | 0.00 | 0.00 | 71 | 1020.1 |
| 20260901225047 | 63 | 355 | 0.0 | 2.0 | 0.00 | 0.00 | 0.00 | 71 | 1020.1 |
| 20260901224535 | 63 | 329 | 0.0 | 2.0 | 0.00 | 0.00 | 0.00 | 70 | 1020.1 |
| 20260901224033 | 63 | 345 | 1.0 | 3.0 | 0.00 | 0.00 | 0.00 | 70 | 1020.1 |
| 20260901223548 | 63 | 330 | 1.0 | 3.0 | 0.00 | 0.00 | 0.00 | 70 | 1020.1 |
| 20260901223031 | 63 | 355 | 1.0 | 3.0 | 0.00 | 0.00 | 0.00 | 70 | 1020.1 |
| 20260901222545 | 63 | 336 | 1.0 | 5.0 | 0.00 | 0.00 | 0.00 | 70 | 1020.1 |
| 20260901222036 | 63 | 334 | 1.0 | 4.0 | 0.00 | 0.00 | 0.00 | 72 | 1020.0 |
| 20260901221531 | 62 | 343 | 1.0 | 4.0 | 0.00 | 0.00 | 0.00 | 73 | 1020.1 |
| 20260901221059 | 62 | 25 | 1.0 | 4.0 | 0.00 | 0.00 | 0.00 | 74 | 1020.1 |
| 20260901220530 | 61 | 355 | 1.0 | 4.0 | 0.00 | 0.00 | 0.00 | 75 | 1020.1 |
| 20260901220101 | 61 | 349 | 1.0 | 3.0 | 0.00 | 0.00 | 0.00 | 77 | 1020.1 |
| 20260901215557 | 61 | 345 | 1.0 | 3.0 | 0.00 | 0.00 | 0.00 | 78 | 1020.0 |
| 20260901215029 | 61 | 309 | 1.0 | 2.0 | 0.00 | 0.00 | 0.00 | 78 | 1019.9 |
| 20260901214546 | 62 | 315 | 0.0 | 2.0 | 0.00 | 0.00 | 0.00 | 78 | 1019.9 |
| 20260901214041 | 62 | 309 | 1.0 | 2.0 | 0.00 | 0.00 | 0.00 | 77 | 1019.9 |
| 20260901213533 | 63 | 309 | 1.0 | 2.0 | 0.00 | 0.00 | 0.00 | 76 | 1019.8 |
| 20260901213107 | 63 | 309 | 0.0 | 2.0 | 0.00 | 0.00 | 0.00 | 75 | 1019.7 |
| 20260901212537 | 63 | 309 | 1.0 | 2.0 | 0.00 | 0.00 | 0.00 | 75 | 1019.8 |
| 20260901212030 | 63 | 305 | 0.0 | 2.0 | 0.00 | 0.00 | 0.00 | 76 | 1019.8 |
| 20260901211548 | 63 | 315 | 0.0 | 2.0 | 0.00 | 0.00 | 0.00 | 76 | 1019.8 |
| 20260901211054 | 63 | 313 | 1.0 | 2.0 | 0.00 | 0.00 | 0.00 | 75 | 1019.8 |
| 20260901210527 | 63 | 308 | 1.0 | 2.0 | 0.00 | 0.00 | 0.00 | 74 | 1019.8 |
| 20260901210045 | 63 | 312 | 1.0 | 2.0 | 0.00 | 0.00 | 0.00 | 74 | 1019.8 |
| 20260901205534 | 63 | 309 | 1.0 | 2.0 | 0.00 | 0.00 | 0.00 | 73 | 1019.8 |
| 20260901205028 | 64 | 309 | 1.0 | 2.0 | 0.00 | 0.00 | 0.00 | 74 | 1019.8 |
| 20260901204540 | 64 | 310 | 0.0 | 2.0 | 0.00 | 0.00 | 0.00 | 73 | 1019.8 |
| 20260901204034 | 64 | 311 | 1.0 | 2.0 | 0.00 | 0.00 | 0.00 | 73 | 1019.8 |
| 20260901203531 | 65 | 309 | 1.0 | 1.0 | 0.00 | 0.00 | 0.00 | 72 | 1019.8 |
| 20260901203028 | 65 | 315 | 0.0 | 0.0 | 0.00 | 0.00 | 0.00 | 71 | 1019.8 |
| 20260901202534 | 65 | 315 | 0.0 | 1.0 | 0.00 | 0.00 | 0.00 | 72 | 1019.8 |
| 20260901202028 | 65 | 315 | 0.0 | 1.0 | 0.00 | 0.00 | 0.00 | 71 | 1019.7 |
| 20260901201540 | 65 | 315 | 0.0 | 1.0 | 0.00 | 0.00 | 0.00 | 70 | 1019.7 |
| 20260901201037 | 65 | 315 | 0.0 | 1.0 | 0.00 | 0.00 | 0.00 | 71 | 1019.6 |
| 20260901200557 | 66 | 315 | 0.0 | 1.0 | 0.00 | 0.00 | 0.00 | 69 | 1019.5 |
| 20260901200028 | 66 | 312 | 0.0 | 1.0 | 0.00 | 0.00 | 0.00 | 69 | 1019.5 |
| 20260901195534 | 66 | 306 | 0.0 | 2.0 | 0.00 | 0.00 | 0.00 | 69 | 1019.6 |
| 20260901195107 | 67 | 320 | 0.0 | 2.0 | 0.00 | 0.00 | 0.00 | 68 | 1019.5 |
| 20260901194602 | 67 | 331 | 1.0 | 1.0 | 0.00 | 0.00 | 0.00 | 68 | 1019.4 |
| 20260901194038 | 67 | 338 | 0.0 | 1.0 | 0.00 | 0.00 | 0.00 | 66 | 1019.4 |
| 20260901193529 | 68 | 346 | 0.0 | 1.0 | 0.00 | 0.00 | 0.00 | 66 | 1019.3 |
| 20260901193046 | 68 | 347 | 0.0 | 1.0 | 0.00 | 0.00 | 0.00 | 66 | 1019.2 |
| 20260901192558 | 68 | 342 | 0.0 | 1.0 | 0.00 | 0.00 | 0.00 | 65 | 1019.1 |
| 20260901192030 | 68 | 334 | 0.0 | 1.0 | 0.00 | 0.00 | 0.00 | 65 | 1019.1 |
| 20260901191548 | 68 | 338 | 0.0 | 0.0 | 0.00 | 0.00 | 0.00 | 64 | 1019.1 |
| 20260901191040 | 69 | 338 | 0.0 | 0.0 | 0.00 | 0.00 | 0.00 | 65 | 1019.2 |
| 20260901190557 | 69 | 338 | 0.0 | 1.0 | 0.00 | 0.00 | 0.00 | 64 | 1019.1 |
| 20260901190047 | 70 | 338 | 0.0 | 1.0 | 0.00 | 0.00 | 0.00 | 62 | 1019.1 |
| 20260901185539 | 70 | 350 | 0.0 | 1.0 | 0.00 | 0.00 | 0.00 | 61 | 1019.1 |
| 20260901185032 | 70 | 355 | 0.0 | 1.0 | 0.00 | 0.00 | 0.00 | 61 | 1019.0 |
| 20260901184546 | 71 | 355 | 0.0 | 1.0 | 0.00 | 0.00 | 0.00 | 59 | 1019.0 |
| 20260901184029 | 71 | 321 | 0.0 | 1.0 | 0.00 | 0.00 | 0.00 | 60 | 1019.0 |
| 20260901183548 | 71 | 315 | 0.0 | 1.0 | 0.00 | 0.00 | 0.00 | 59 | 1018.9 |
| 20260901183042 | 71 | 311 | 0.0 | 1.0 | 0.00 | 0.00 | 0.00 | 59 | 1018.9 |
| 20260901182537 | 72 | 318 | 0.0 | 1.0 | 0.00 | 0.00 | 0.00 | 58 | 1018.8 |
| 20260901182029 | 72 | 309 | 0.0 | 2.0 | 0.00 | 0.00 | 0.00 | 57 | 1018.8 |
| 20260901181538 | 73 | 313 | 0.0 | 2.0 | 0.00 | 0.00 | 0.00 | 55 | 1018.8 |
| 20260901181028 | 73 | 326 | 0.0 | 2.0 | 0.00 | 0.00 | 0.00 | 55 | 1018.8 |
| 20260901180540 | 74 | 325 | 0.0 | 2.0 | 0.00 | 0.00 | 0.00 | 54 | 1018.8 |
| 20260901180107 | 74 | 315 | 0.0 | 3.0 | 0.00 | 0.00 | 0.00 | 54 | 1018.8 |
| 20260901175542 | 75 | 305 | 1.0 | 3.0 | 0.00 | 0.00 | 0.00 | 54 | 1018.8 |
| 20260901175030 | 75 | 317 | 1.0 | 2.0 | 0.00 | 0.00 | 0.00 | 52 | 1018.7 |
| 20260901174542 | 75 | 332 | 1.0 | 3.0 | 0.00 | 0.00 | 0.00 | 52 | 1018.8 |
| 20260901174032 | 76 | 324 | 0.0 | 2.0 | 0.00 | 0.00 | 0.00 | 51 | 1018.7 |
| 20260901173544 | 76 | 355 | 0.0 | 3.0 | 0.00 | 0.00 | 0.00 | 50 | 1018.7 |
| 20260901173042 | 76 | 331 | 1.0 | 3.0 | 0.00 | 0.00 | 0.00 | 50 | 1018.7 |
| 20260901172534 | 76 | 22 | 0.0 | 3.0 | 0.00 | 0.00 | 0.00 | 50 | 1018.8 |
| 20260901172027 | 77 | 355 | 1.0 | 3.0 | 0.00 | 0.00 | 0.00 | 49 | 1018.7 |
| 20260901171539 | 77 | 342 | 0.0 | 4.0 | 0.00 | 0.00 | 0.00 | 49 | 1018.8 |
| 20260901171034 | 77 | 344 | 2.0 | 5.0 | 0.00 | 0.00 | 0.00 | 48 | 1018.8 |
| 20260901170542 | 78 | 344 | 2.0 | 5.0 | 0.00 | 0.00 | 0.00 | 48 | 1018.8 |
| 20260901170035 | 77 | 331 | 3.0 | 5.0 | 0.00 | 0.00 | 0.00 | 49 | 1018.7 |
| 20260901165532 | 78 | 58 | 0.0 | 4.0 | 0.00 | 0.00 | 0.00 | 48 | 1018.7 |
| 20260901165043 | 78 | 36 | 2.0 | 4.0 | 0.00 | 0.00 | 0.00 | 48 | 1018.8 |
| 20260901164550 | 78 | 19 | 1.0 | 3.0 | 0.00 | 0.00 | 0.00 | 48 | 1018.7 |
| 20260901164046 | 78 | 355 | 0.0 | 5.0 | 0.00 | 0.00 | 0.00 | 48 | 1018.7 |
| 20260901163543 | 79 | 355 | 2.0 | 5.0 | 0.00 | 0.00 | 0.00 | 47 | 1018.7 |
| 20260901163031 | 80 | 34 | 3.0 | 5.0 | 0.00 | 0.00 | 0.00 | 46 | 1018.7 |
| 20260901162541 | 79 | 332 | 0.0 | 2.0 | 0.00 | 0.00 | 0.00 | 48 | 1018.8 |
| 20260901162034 | 79 | 325 | 1.0 | 4.0 | 0.00 | 0.00 | 0.00 | 49 | 1018.8 |
| 20260901161546 | 79 | 344 | 1.0 | 4.0 | 0.00 | 0.00 | 0.00 | 49 | 1018.9 |
| 20260901161100 | 79 | 39 | 1.0 | 3.0 | 0.00 | 0.00 | 0.00 | 48 | 1018.8 |
| 20260901160551 | 79 | 5 | 0.0 | 4.0 | 0.00 | 0.00 | 0.00 | 47 | 1018.9 |
| 20260901160033 | 78 | 289 | 1.0 | 4.0 | 0.00 | 0.00 | 0.00 | 49 | 1019.0 |
| 20260901155545 | 78 | 317 | 1.0 | 3.0 | 0.00 | 0.00 | 0.00 | 49 | 1019.0 |
| 20260901155040 | 78 | 51 | 1.0 | 4.0 | 0.00 | 0.00 | 0.00 | 48 | 1019.0 |
| 20260901154534 | 79 | 13 | 0.0 | 5.0 | 0.00 | 0.00 | 0.00 | 48 | 1019.1 |
| 20260901154049 | 80 | 348 | 2.0 | 5.0 | 0.00 | 0.00 | 0.00 | 47 | 1019.1 |
| 20260901153609 | 80 | 317 | 0.0 | 3.0 | 0.00 | 0.00 | 0.00 | 46 | 1019.1 |
| 20260901153034 | 80 | 330 | 0.0 | 1.0 | 0.00 | 0.00 | 0.00 | 47 | 1019.1 |
| 20260901152529 | 79 | 213 | 0.0 | 1.0 | 0.00 | 0.00 | 0.00 | 47 | 1019.1 |
| 20260901152048 | 79 | 317 | 0.0 | 1.0 | 0.00 | 0.00 | 0.00 | 48 | 1019.1 |
| 20260901151538 | 79 | 85 | 0.0 | 6.0 | 0.00 | 0.00 | 0.00 | 49 | 1019.1 |
| 20260901151046 | 80 | 338 | 1.0 | 8.0 | 0.00 | 0.00 | 0.00 | 47 | 1019.2 |
| 20260901150536 | 80 | 299 | 2.0 | 6.0 | 0.00 | 0.00 | 0.00 | 46 | 1019.1 |
| 20260901150058 | 80 | 311 | 1.0 | 6.0 | 0.00 | 0.00 | 0.00 | 48 | 1019.1 |
| 20260901145529 | 79 | 183 | 0.0 | 4.0 | 0.00 | 0.00 | 0.00 | 49 | 1019.1 |
| 20260901145034 | 79 | 46 | 1.0 | 5.0 | 0.00 | 0.00 | 0.00 | 49 | 1019.2 |
| 20260901144548 | 79 | 51 | 2.0 | 5.0 | 0.00 | 0.00 | 0.00 | 49 | 1019.2 |
| 20260901144042 | 78 | 87 | 0.0 | 3.0 | 0.00 | 0.00 | 0.00 | 51 | 1019.2 |
| 20260901143601 | 78 | 16 | 0.0 | 4.0 | 0.00 | 0.00 | 0.00 | 50 | 1019.3 |
| 20260901143055 | 78 | 20 | 1.0 | 5.0 | 0.00 | 0.00 | 0.00 | 49 | 1019.3 |
| 20260901142608 | 78 | 294 | 1.0 | 6.0 | 0.00 | 0.00 | 0.00 | 51 | 1019.3 |
| 20260901142039 | 78 | 10 | 2.0 | 5.0 | 0.00 | 0.00 | 0.00 | 51 | 1019.4 |
| 20260901141535 | 78 | 355 | 1.0 | 6.0 | 0.00 | 0.00 | 0.00 | 51 | 1019.4 |
| 20260901141053 | 77 | 355 | 1.0 | 6.0 | 0.00 | 0.00 | 0.00 | 50 | 1019.5 |
| 20260901140540 | 77 | 12 | 1.0 | 5.0 | 0.00 | 0.00 | 0.00 | 51 | 1019.5 |
| 20260901140030 | 77 | 53 | 1.0 | 4.0 | 0.00 | 0.00 | 0.00 | 52 | 1019.4 |
| 20260901135540 | 77 | 65 | 1.0 | 4.0 | 0.00 | 0.00 | 0.00 | 50 | 1019.4 |
| 20260901135034 | 78 | 360 | 1.0 | 4.0 | 0.00 | 0.00 | 0.00 | 50 | 1019.5 |
| 20260901134547 | 78 | 5 | 2.0 | 4.0 | 0.00 | 0.00 | 0.00 | 52 | 1019.5 |